• In Hungary
  • List of Countries
  • For 7 days
  • Water Temperature
  • Satellite Maps
  • Weather Map
  • News
  • Weather Widgets
  • user-avatar
    Login

    Hourly Weather Bali

    Today, 18 November, Saturday

    Time Temperature Precipitation Wind Pressure Humidity
    00:00 +26°C° 0.1 mm 2 mps 746 mmHg 89%
    01:00 +26°C° 0.1 mm 2 mps 746 mmHg 89%
    02:00 +26°C° 0 mm 2 mps 746 mmHg 89%
    03:00 +26°C° 0.4 mm 2 mps 746 mmHg 89%
    04:00 +26°C° 0.4 mm 2 mps 746 mmHg 89%
    05:00 +26°C° 0.4 mm 2 mps 745 mmHg 89%
    06:00 +27°C° 0.3 mm 2 mps 746 mmHg 84%
    07:00 +28°C° 0.3 mm 2 mps 746 mmHg 78%
    08:00 +31°C° 0 mm 1 mps 746 mmHg 69%
    09:00 +32°C° 0.4 mm 1 mps 746 mmHg 67%
    10:00 +32°C° 0.4 mm 2 mps 746 mmHg 64%
    11:00 +34°C° 0.4 mm 2 mps 746 mmHg 61%
    12:00 +32°C° 0.8 mm 2 mps 746 mmHg 65%
    13:00 +32°C° 0.8 mm 2 mps 745 mmHg 69%
    14:00 +31°C° 0.8 mm 2 mps 745 mmHg 73%
    15:00 +31°C° 1.1 mm 2 mps 745 mmHg 76%
    16:00 +30°C° 1.1 mm 2 mps 745 mmHg 79%
    17:00 +30°C° 1.1 mm 2 mps 745 mmHg 82%
    18:00 +29°C° 1.6 mm 2 mps 745 mmHg 84%
    19:00 +28°C° 1.6 mm 1 mps 745 mmHg 86%
    20:00 +27°C° 1.6 mm 1 mps 745 mmHg 88%
    21:00 +27°C° 1 mm 1 mps 746 mmHg 88%
    22:00 +27°C° 1 mm 1 mps 746 mmHg 88%
    23:00 +27°C° 1 mm 1 mps 746 mmHg 88%

    Tomorrow, 19 November, Sunday

    Time Temperature Precipitation Wind Pressure Humidity
    00:00 +27°C° 0.5 mm 1 mps 746 mmHg 89%
    01:00 +27°C° 0.5 mm 1 mps 746 mmHg 89%
    02:00 +27°C° 0.5 mm 1 mps 745 mmHg 89%
    03:00 +27°C° 0.1 mm 1 mps 745 mmHg 90%
    04:00 +26°C° 0.1 mm 1 mps 745 mmHg 90%
    05:00 +26°C° 0.1 mm 1 mps 745 mmHg 90%
    06:00 +27°C° 0 mm 1 mps 745 mmHg 87%
    07:00 +28°C° 0 mm 1 mps 746 mmHg 83%
    08:00 +29°C° 0 mm 1 mps 746 mmHg 79%
    09:00 +30°C° 0 mm 1 mps 746 mmHg 74%
    10:00 +32°C° 0 mm 2 mps 746 mmHg 69%
    11:00 +34°C° 0 mm 2 mps 746 mmHg 64%
    12:00 +32°C° 1.4 mm 2 mps 746 mmHg 68%
    13:00 +32°C° 1.4 mm 2 mps 745 mmHg 73%
    14:00 +31°C° 1.4 mm 2 mps 745 mmHg 77%
    15:00 +31°C° 1.8 mm 2 mps 745 mmHg 80%
    16:00 +30°C° 1.8 mm 2 mps 744 mmHg 83%
    17:00 +29°C° 1.8 mm 2 mps 744 mmHg 86%
    18:00 +29°C° 2.3 mm 1 mps 745 mmHg 87%
    19:00 +28°C° 2.3 mm 1 mps 745 mmHg 88%
    20:00 +27°C° 2.3 mm 1 mps 746 mmHg 89%
    21:00 +27°C° 1 mm 1 mps 746 mmHg 89%
    22:00 +27°C° 1 mm 1 mps 746 mmHg 89%
    23:00 +27°C° 1 mm 1 mps 747 mmHg 89%

    Day after tomorrow, 20 November, Monday

    Time Temperature Precipitation Wind Pressure Humidity
    00:00 +27°C° 0.4 mm 1 mps 746 mmHg 89%
    01:00 +27°C° 0.4 mm 1 mps 746 mmHg 89%
    02:00 +27°C° 0.4 mm 1 mps 745 mmHg 90%
    03:00 +27°C° 0.1 mm 1 mps 745 mmHg 89%
    04:00 +27°C° 0.1 mm 1 mps 745 mmHg 89%
    05:00 +26°C° 0.1 mm 1 mps 745 mmHg 89%
    06:00 +28°C° 0 mm 1 mps 745 mmHg 84%
    07:00 +29°C° 0 mm 1 mps 746 mmHg 78%
    08:00 +30°C° 0 mm 1 mps 746 mmHg 73%
    09:00 +32°C° 0.3 mm 1 mps 747 mmHg 67%
    10:00 +33°C° 0.3 mm 1 mps 747 mmHg 61%
    11:00 +36°C° 0.3 mm 2 mps 747 mmHg 55%
    12:00 +35°C° 1.3 mm 2 mps 746 mmHg 62%
    13:00 +34°C° 1.3 mm 2 mps 745 mmHg 69%
    14:00 +32°C° 1.3 mm 2 mps 745 mmHg 75%
    15:00 +31°C° 1.8 mm 2 mps 745 mmHg 79%
    16:00 +30°C° 1.8 mm 2 mps 744 mmHg 82%
    17:00 +30°C° 1.8 mm 2 mps 744 mmHg 85%
    18:00 +29°C° 1.1 mm 2 mps 745 mmHg 86%
    19:00 +28°C° 1.1 mm 2 mps 745 mmHg 87%
    20:00 +27°C° 1.1 mm 2 mps 746 mmHg 88%
    21:00 +27°C° 0.5 mm 2 mps 746 mmHg 88%
    22:00 +27°C° 0.5 mm 2 mps 746 mmHg 88%
    23:00 +27°C° 0.5 mm 2 mps 747 mmHg 88%

    21 November, Tuesday

    Time Temperature Precipitation Wind Pressure Humidity
    00:00 +27°C° 0.5 mm 2 mps 746 mmHg 88%
    01:00 +27°C° 0.5 mm 2 mps 746 mmHg 89%
    02:00 +27°C° 0.5 mm 2 mps 745 mmHg 89%
    03:00 +27°C° 0.4 mm 2 mps 745 mmHg 89%
    04:00 +27°C° 0.4 mm 2 mps 745 mmHg 89%
    05:00 +26°C° 0.4 mm 2 mps 745 mmHg 89%
    06:00 +28°C° 0.4 mm 1 mps 745 mmHg 85%
    07:00 +29°C° 0.4 mm 1 mps 746 mmHg 81%
    08:00 +30°C° 0.4 mm 1 mps 746 mmHg 77%
    09:00 +31°C° 0.4 mm 1 mps 746 mmHg 72%
    10:00 +32°C° 0.4 mm 1 mps 746 mmHg 67%
    11:00 +35°C° 0.4 mm 2 mps 746 mmHg 62%
    12:00 +34°C° 0.3 mm 2 mps 746 mmHg 62%
    13:00 +34°C° 0.3 mm 2 mps 745 mmHg 63%
    14:00 +34°C° 0.3 mm 2 mps 744 mmHg 63%
    15:00 +32°C° 0.5 mm 1 mps 744 mmHg 66%
    16:00 +31°C° 0.5 mm 1 mps 744 mmHg 69%
    17:00 +30°C° 0.5 mm 1 mps 744 mmHg 72%
    18:00 +29°C° 0.3 mm 1 mps 744 mmHg 76%
    19:00 +29°C° 0.3 mm 1 mps 745 mmHg 79%
    20:00 +28°C° 0.3 mm 1 mps 745 mmHg 82%
    21:00 +28°C° 0.2 mm 1 mps 746 mmHg 82%
    22:00 +28°C° 0.2 mm 1 mps 746 mmHg 82%
    23:00 +27°C° 0.2 mm 1 mps 746 mmHg 82%

    22 November, Wednesday

    Time Temperature Precipitation Wind Pressure Humidity
    00:00 +27°C° 0.6 mm 1 mps 745 mmHg 83%
    01:00 +27°C° 0.6 mm 1 mps 745 mmHg 83%
    02:00 +27°C° 0.6 mm 1 mps 744 mmHg 84%
    03:00 +27°C° 0.4 mm 1 mps 744 mmHg 84%
    04:00 +27°C° 0.4 mm 1 mps 744 mmHg 85%
    05:00 +27°C° 0.4 mm 1 mps 744 mmHg 85%
    06:00 +27°C° 0.7 mm 1 mps 745 mmHg 86%
    07:00 +27°C° 0.7 mm 1 mps 746 mmHg 88%
    08:00 +27°C° 0.7 mm 1 mps 746 mmHg 89%
    09:00 +27°C° 0.5 mm 1 mps 746 mmHg 88%
    10:00 +28°C° 0.5 mm 1 mps 746 mmHg 87%
    11:00 +28°C° 0.5 mm 1 mps 746 mmHg 86%
    12:00 +28°C° 0.6 mm 2 mps 745 mmHg 86%
    13:00 +28°C° 0.6 mm 2 mps 745 mmHg 86%
    14:00 +28°C° 0.6 mm 2 mps 744 mmHg 86%
    15:00 +28°C° 1 mm 2 mps 744 mmHg 88%
    16:00 +27°C° 1 mm 2 mps 744 mmHg 90%
    17:00 +27°C° 1 mm 2 mps 744 mmHg 92%
    18:00 +27°C° 1 mm 1 mps 745 mmHg 92%
    19:00 +27°C° 1 mm 1 mps 745 mmHg 92%
    20:00 +26°C° 1 mm 1 mps 746 mmHg 92%
    21:00 +26°C° 0.4 mm 1 mps 746 mmHg 93%
    22:00 +26°C° 0.4 mm 1 mps 746 mmHg 93%
    23:00 +26°C° 0.4 mm 1 mps 746 mmHg 93%

    23 November, Thursday

    Time Temperature Precipitation Wind Pressure Humidity
    00:00 +26°C° 0.6 mm 1 mps 746 mmHg 93%
    01:00 +26°C° 0.6 mm 1 mps 745 mmHg 93%
    02:00 +26°C° 0.6 mm 1 mps 745 mmHg 93%
    03:00 +25°C° 0.4 mm 1 mps 744 mmHg 93%
    04:00 +25°C° 0.4 mm 1 mps 744 mmHg 92%
    05:00 +25°C° 0.4 mm 1 mps 744 mmHg 92%
    06:00 +26°C° 0.3 mm 1 mps 745 mmHg 90%
    07:00 +26°C° 0.3 mm 1 mps 745 mmHg 89%
    08:00 +27°C° 0.3 mm 1 mps 746 mmHg 87%
    09:00 +28°C° 0.1 mm 1 mps 746 mmHg 81%
    10:00 +29°C° 0.1 mm 1 mps 746 mmHg 74%
    11:00 +30°C° 0.1 mm 1 mps 746 mmHg 67%
    12:00 +31°C° 0 mm 1 mps 745 mmHg 66%
    13:00 +31°C° 0 mm 1 mps 745 mmHg 64%
    14:00 +32°C° 0 mm 1 mps 744 mmHg 62%
    15:00 +31°C° 0 mm 1 mps 744 mmHg 63%
    16:00 +30°C° 0 mm 1 mps 744 mmHg 65%
    17:00 +30°C° 0 mm 1 mps 744 mmHg 66%
    18:00 +29°C° 0 mm 1 mps 745 mmHg 69%
    19:00 +28°C° 0 mm 1 mps 745 mmHg 73%
    20:00 +27°C° 0 mm 2 mps 746 mmHg 76%
    21:00 +27°C° 0 mm 2 mps 746 mmHg 78%
    22:00 +27°C° 0 mm 2 mps 746 mmHg 79%
    23:00 +27°C° 0 mm 2 mps 746 mmHg 80%
    Show more